K5TCS Weather Reports


Display with metric or nautical units.
time (UTC)temp
F
wind
direction
speed
MPH
gust
MPH
rain 1hr
in
rain 24hr
in
rain mn
in
humidity
%
barometer
mb
20260510043037 57 270 1.0 5.0 0.00 0.00 0.00 33 1022.5
20260510042018 56 248 1.0 4.0 0.00 0.00 0.00 34 1021.9
20260510041017 57 248 1.0 5.0 0.00 0.00 0.00 34 1022.4
20260510040017 57 270 1.0 5.0 0.00 0.00 0.00 33 1022.3
20260510035017 56 0.0 3.0 0.00 0.00 0.00 34 1021.4
20260510034017 57 0.0 3.0 0.00 0.00 0.00 34 1021.8
20260510033017 58 0.0 3.0 0.00 0.00 0.00 33 1021.6
20260510032017 59 248 1.0 4.0 0.00 0.00 0.00 32 1021.2
20260510031037 59 225 1.0 5.0 0.00 0.00 0.00 32 1021.0
20260510030017 60 0.0 2.0 0.00 0.00 0.00 30 1021.0
20260510025017 61 0.0 2.0 0.00 0.00 0.00 29 1019.9
20260510024017 63 0.0 2.0 0.00 0.00 0.00 28 1020.3
20260510023017 65 0.0 2.0 0.00 0.00 0.00 26 1020.7
20260510022017 65 0.0 2.0 0.00 0.00 0.00 26 1018.8
20260510021017 67 203 1.0 4.0 0.00 0.00 0.00 25 1019.0
20260510020057 68 203 1.0 4.0 0.00 0.00 0.00 24 1019.5
20260510015017 69 203 1.0 6.0 0.00 0.00 0.00 23 1019.0
20260510014017 70 0.0 4.0 0.00 0.00 0.00 23 1019.0
20260510013017 72 225 1.0 6.0 0.00 0.00 0.00 21 1019.3
20260510012017 74 270 3.0 9.0 0.00 0.00 0.00 21 1019.0
20260510011017 75 248 3.0 10.0 0.00 0.00 0.00 20 1019.4
20260510010017 75 270 4.0 12.0 0.00 0.00 0.00 20 1019.4
20260510005017 76 270 5.0 14.0 0.00 0.00 0.00 19 1018.4
20260510004017 77 270 5.0 13.0 0.00 0.00 0.00 19 1018.5
20260510003017 77 270 5.0 12.0 0.00 0.00 0.00 19 1019.1
20260510002137 77 270 5.0 16.0 0.00 0.00 0.00 19 1018.2
20260510001016 77 270 5.0 16.0 0.00 0.00 0.00 18 1018.2
20260510000057 77 270 6.0 14.0 0.00 0.00 0.00 19 1018.3
20260509235016 78 315 6.0 15.0 0.00 0.00 0.00 18 1019.1
20260509234016 78 270 6.0 14.0 0.00 0.00 0.00 18 1019.2
20260509233017 78 315 6.0 13.0 0.00 0.00 0.00 18 1019.0
20260509232016 79 270 5.0 15.0 0.00 0.00 0.00 18 1019.8
20260509231016 79 270 8.0 15.0 0.00 0.00 0.00 17 1019.5
20260509230016 79 270 8.0 15.0 0.00 0.00 0.00 17 1019.4
20260509225016 79 293 7.0 13.0 0.00 0.00 0.00 17 1019.4
20260509224016 80 270 5.0 15.0 0.00 0.00 0.00 17 1019.6
20260509223016 79 270 7.0 17.0 0.00 0.00 0.00 18 1019.4
20260509222016 80 270 7.0 16.0 0.00 0.00 0.00 17 1018.9
20260509221016 81 248 6.0 16.0 0.00 0.00 0.00 18 1018.9
20260509220036 80 293 7.0 15.0 0.00 0.00 0.00 17 1018.8
20260509215016 80 248 7.0 15.0 0.00 0.00 0.00 18 1018.9
20260509214056 81 248 7.0 15.0 0.00 0.00 0.00 18 1019.1
20260509213056 80 270 8.0 17.0 0.00 0.00 0.00 18 1019.2
20260509212016 81 225 6.0 16.0 0.00 0.00 0.00 18 1019.2
20260509211016 81 315 5.0 17.0 0.00 0.00 0.00 18 1019.9
20260509210016 82 225 7.0 16.0 0.00 0.00 0.00 18 1020.1
20260509205016 81 248 9.0 18.0 0.00 0.00 0.00 18 1020.1
20260509204016 81 270 7.0 18.0 0.00 0.00 0.00 18 1020.3
20260509203016 81 248 7.0 15.0 0.00 0.00 0.00 18 1020.2
20260509202016 82 225 6.0 15.0 0.00 0.00 0.00 19 1020.5
20260509201016 79 270 5.0 15.0 0.00 0.00 0.00 20 1020.1
20260509200016 77 0 4.0 16.0 0.00 0.00 0.00 19 1020.0
20260509195016 78 315 7.0 14.0 0.00 0.00 0.00 18 1020.2
20260509194016 78 338 4.0 13.0 0.00 0.00 0.00 19 1020.3
20260509193016 77 315 3.0 12.0 0.00 0.00 0.00 19 1019.8
20260509192036 78 315 3.0 10.0 0.00 0.00 0.00 20 1020.3
20260509191016 80 225 5.0 15.0 0.00 0.00 0.00 19 1020.4
20260509190036 79 270 3.0 13.0 0.00 0.00 0.00 19 1020.8
20260509185036 77 225 2.0 8.0 0.00 0.00 0.00 21 1020.6
20260509184015 77 180 3.0 12.0 0.00 0.00 0.00 21 1020.9
20260509183016 77 180 4.0 13.0 0.00 0.00 0.00 22 1020.9
20260509182015 78 135 6.0 17.0 0.00 0.00 0.00 22 1021.2
20260509181015 80 180 4.0 14.0 0.00 0.00 0.00 21 1022.3
20260509180036 81 158 4.0 12.0 0.00 0.00 0.00 21 1022.8
20260509175016 80 180 4.0 15.0 0.00 0.00 0.00 21 1022.3
20260509174017 79 180 3.0 10.0 0.00 0.00 0.00 21 1022.8
20260509173018 79 158 3.0 13.0 0.00 0.00 0.00 21 1023.0
20260509172017 79 158 5.0 14.0 0.00 0.00 0.00 21 1023.2
20260509171018 80 180 3.0 10.0 0.00 0.00 0.00 20 1023.1
20260509170017 79 180 3.0 11.0 0.00 0.00 0.00 22 1023.5
20260509165017 77 158 2.0 6.0 0.00 0.00 0.00 22 1023.2
20260509164017 76 270 2.0 15.0 0.00 0.00 0.00 20 1023.3
20260509163017 78 113 2.0 9.0 0.00 0.00 0.00 20 1023.5
20260509162017 78 203 2.0 7.0 0.00 0.00 0.00 21 1023.5
20260509161017 77 158 1.0 6.0 0.00 0.00 0.00 23 1024.6
20260509160017 76 90 1.0 4.0 0.00 0.00 0.00 24 1024.6
20260509155017 77 45 3.0 11.0 0.00 0.00 0.00 20 1024.8
20260509154017 75 270 1.0 7.0 0.00 0.00 0.00 21 1024.3
20260509153038 75 270 1.0 6.0 0.00 0.00 0.00 20 1024.3
20260509152017 75 0.0 3.0 0.00 0.00 0.00 24 1024.5
20260509151017 74 0.0 2.0 0.00 0.00 0.00 24 1024.8
20260509150037 73 0.0 3.0 0.00 0.00 0.00 26 1024.7
20260509145017 71 0.0 4.0 0.00 0.00 0.00 28 1024.2
20260509144017 70 248 1.0 3.0 0.00 0.00 0.00 29 1024.8
20260509143017 67 270 1.0 3.0 0.00 0.00 0.00 30 1024.3
20260509142017 65 0.0 3.0 0.00 0.00 0.00 32 1023.7
20260509141037 62 0.0 2.0 0.00 0.00 0.00 34 1024.2
20260509140017 60 0.0 2.0 0.00 0.00 0.00 35 1023.6
20260509135037 58 270 1.0 4.0 0.00 0.00 0.00 36 1023.1
20260509134017 56 0.0 3.0 0.00 0.00 0.00 37 1023.6
20260509133017 55 0.0 2.0 0.00 0.00 0.00 37 1023.1
20260509132017 55 270 1.0 6.0 0.00 0.00 0.00 36 1023.2
20260509131017 56 270 4.0 8.0 0.00 0.00 0.00 34 1023.7
20260509130037 54 270 4.0 7.0 0.00 0.00 0.00 35 1023.1
20260509125037 53 270 4.0 9.0 0.00 0.00 0.00 35 1023.0
20260509124017 52 270 4.0 10.0 0.00 0.00 0.00 36 1023.3
20260509123057 51 270 4.0 7.0 0.00 0.00 0.00 37 1023.2
20260509122016 49 270 2.0 7.0 0.00 0.00 0.00 40 1022.7
20260509121017 48 203 2.0 4.0 0.00 0.00 0.00 42 1021.8
20260509120037 46 203 2.0 4.0 0.00 0.00 0.00 43 1021.7
20260509115017 46 248 2.0 5.0 0.00 0.00 0.00 43 1021.6
20260509114017 47 270 2.0 5.0 0.00 0.00 0.00 42 1022.0
20260509113016 47 270 1.0 3.0 0.00 0.00 0.00 42 1022.2
20260509112037 48 270 2.0 4.0 0.00 0.00 0.00 41 1022.1
20260509111017 49 270 1.0 4.0 0.00 0.00 0.00 40 1022.2
20260509110017 50 270 1.0 3.0 0.00 0.00 0.00 39 1022.2
20260509105017 49 0.0 3.0 0.00 0.00 0.00 40 1022.3
20260509104017 50 270 1.0 3.0 0.00 0.00 0.00 40 1023.3
20260509103016 50 0.0 2.0 0.00 0.00 0.00 39 1023.2
20260509102016 49 0.0 1.0 0.00 0.00 0.00 41 1022.8
20260509101016 48 0.0 2.0 0.00 0.00 0.00 43 1022.4
20260509100036 45 0.0 1.0 0.00 0.00 0.00 46 1022.0
20260509095016 45 270 1.0 2.0 0.00 0.00 0.00 47 1021.7
20260509094016 45 0.0 3.0 0.00 0.00 0.00 48 1021.2
20260509093016 46 0.0 3.0 0.00 0.00 0.00 47 1021.7
20260509092016 44 225 1.0 3.0 0.00 0.00 0.00 49 1021.3
20260509091016 44 225 1.0 3.0 0.00 0.00 0.00 48 1022.2
20260509090016 45 225 1.0 3.0 0.00 0.00 0.00 48 1022.2
20260509085016 45 225 1.0 4.0 0.00 0.00 0.00 48 1022.4
20260509084016 45 225 1.0 5.0 0.00 0.00 0.00 48 1022.4
20260509083016 45 248 1.0 4.0 0.00 0.00 0.00 48 1022.4
20260509082016 45 248 1.0 3.0 0.00 0.00 0.00 48 1022.6
20260509081016 45 248 1.0 4.0 0.00 0.00 0.00 48 1022.7
20260509080016 46 248 1.0 4.0 0.00 0.00 0.00 47 1022.8
20260509075016 46 203 1.0 5.0 0.00 0.00 0.00 47 1022.8
20260509074016 46 248 1.0 5.0 0.00 0.00 0.00 47 1022.4
20260509073016 46 270 1.0 4.0 0.00 0.00 0.00 48 1022.4
20260509072016 46 270 1.0 3.0 0.00 0.00 0.00 48 1022.5
20260509071016 47 270 1.0 5.0 0.00 0.00 0.00 47 1022.1
20260509070016 46 270 1.0 4.0 0.00 0.00 0.00 48 1022.1
20260509065016 47 248 1.0 4.0 0.00 0.00 0.00 47 1022.6
20260509064056 48 270 1.0 4.0 0.00 0.00 0.00 46 1022.6
20260509063016 47 270 1.0 3.0 0.00 0.00 0.00 47 1022.8
20260509062016 47 225 1.0 4.0 0.00 0.00 0.00 47 1022.9
20260509061016 47 225 2.0 5.0 0.00 0.00 0.00 47 1022.8
20260509060016 48 180 2.0 4.0 0.00 0.00 0.00 46 1023.0
20260509055018 49 248 1.0 3.0 0.00 0.00 0.00 44 1023.4
20260509054038 51 248 1.0 5.0 0.00 0.00 0.00 42 1023.6
20260509053017 52 270 2.0 5.0 0.00 0.00 0.00 40 1024.1
20260509052017 51 270 1.0 5.0 0.00 0.00 0.00 41 1023.7
20260509051017 50 248 1.0 3.0 0.00 0.00 0.00 44 1023.2
20260509050017 50 0.0 3.0 0.00 0.00 0.00 43 1023.5
20260509045057 51 248 1.0 6.0 0.00 0.00 0.00 41 1023.4
20260509044017 54 0.0 2.0 0.00 0.00 0.00 37 1024.0